Weather History for Graham, TX

Change the Weather History Date:

Monday, May 26, 2014

  Actual Average (KMWL) Record (KMWL)
Temperature  
Mean Temperature 72 °F -  
Max Temperature 84 °F 85 °F 96 °F (1997)
Min Temperature 61 °F 63 °F 57 °F (2011)
Cooling Degree Days 8    
Growing Degree Days 22 (Base 50)    
Moisture  
Dew Point 60 °F    
Average Humidity 68    
Maximum Humidity 95    
Minimum Humidity 40    
Precipitation  
Precipitation 0.00 in - - ()
Sea Level Pressure  
Sea Level Pressure 29.97 in    
Wind  
Wind Speed 4 mph (ESE)    
Max Wind Speed 16 mph    
Max Gust Speed 25 mph    
Visibility 10 miles    
Events Rain    
Averages and records for this station are not official NWS values.
T = Trace of Precipitation, MM = Missing Value Source: NWS Daily Summary

Daily Weather History Graph

Daily Weather History Graph

Search for Another Location

Airport:

Trip Planner

Search our weather history database for the weather conditions in past years. The results will help you decide how hot, cold, wet, or windy it might be!

Date:

Astronomy

May. 26, 2014 Rise Set
Actual Time 6:28 AM CDT 8:34 PM CDT
Civil Twilight 6:00 AM CDT 9:02 PM CDT
Nautical Twilight 5:26 AM CDT 9:36 PM CDT
Astronomical Twilight 4:49 AM CDT 10:13 PM CDT
Moon 5:03 AM CDT (5/26) 6:44 PM CDT (5/26)
Length of Visible Light 15h 02m
Length of Day
14h 06m
Waning Crescent, 5% of the Moon is Illuminated
May 26
Waning Crescent
May 28
New
Jun 5
First Quarter
Jun 12
Full
Jun 19
Last Quarter

Hourly Weather History & Observations

Time (CDT) Temp. Heat Index Dew Point Humidity Pressure Visibility Wind Dir Wind Speed Gust Speed Precip Events Conditions
12:15 AM 62.4 °F - 60.8 °F 94% 30.00 in 10.0 mi Calm Calm - N/A   Mostly Cloudy
12:35 AM 62.1 °F - 60.4 °F 94% 30.00 in 10.0 mi North 3.5 mph - N/A   Scattered Clouds
12:55 AM 62.6 °F - 60.8 °F 94% 30.00 in 10.0 mi Calm Calm - N/A   Mostly Cloudy
1:15 AM 62.8 °F - 60.8 °F 93% 29.99 in 10.0 mi Calm Calm - N/A   Mostly Cloudy
1:35 AM 63.0 °F - 61.0 °F 93% 29.99 in 10.0 mi Calm Calm - N/A   Mostly Cloudy
1:55 AM 62.6 °F - 60.8 °F 94% 29.98 in 10.0 mi Calm Calm - N/A   Scattered Clouds
2:15 AM 62.6 °F - 60.8 °F 94% 29.97 in 10.0 mi Calm Calm - N/A   Scattered Clouds
2:35 AM 62.4 °F - 60.6 °F 94% 29.96 in 10.0 mi Calm Calm - N/A   Scattered Clouds
2:55 AM 62.4 °F - 60.8 °F 94% 29.96 in 10.0 mi Calm Calm - N/A   Clear
3:15 AM 61.9 °F - 60.4 °F 95% 29.97 in 10.0 mi ENE 3.5 mph - N/A   Clear
3:35 AM 61.9 °F - 60.4 °F 95% 29.96 in 10.0 mi NE 5.8 mph - N/A   Clear
3:55 AM 62.2 °F - 60.8 °F 95% 29.97 in 10.0 mi NE 5.8 mph - N/A   Clear
4:15 AM 62.1 °F - 60.4 °F 94% 29.98 in 10.0 mi NE 4.6 mph - N/A   Clear
4:35 AM 62.4 °F - 60.8 °F 94% 29.98 in 10.0 mi NE 3.5 mph - N/A   Scattered Clouds
4:55 AM 63.0 °F - 61.2 °F 94% 29.98 in 10.0 mi NE 3.5 mph - N/A   Mostly Cloudy
5:15 AM 63.1 °F - 61.2 °F 93% 29.98 in 10.0 mi ENE 3.5 mph - N/A   Overcast
5:35 AM 63.5 °F - 61.7 °F 94% 29.99 in 10.0 mi East 3.5 mph - N/A   Overcast
5:55 AM 63.9 °F - 61.7 °F 93% 30.01 in 10.0 mi Calm Calm - N/A   Overcast
6:15 AM 63.7 °F - 61.7 °F 93% 30.01 in 10.0 mi Calm Calm - N/A   Overcast
6:35 AM 63.7 °F - 61.7 °F 93% 30.01 in 10.0 mi Calm Calm - N/A   Overcast
6:55 AM 63.0 °F - 61.3 °F 94% 30.00 in 10.0 mi ESE 3.5 mph - N/A   Scattered Clouds
7:15 AM 64.2 °F - 62.6 °F 94% 30.00 in 10.0 mi East 5.8 mph - N/A   Clear
7:35 AM 65.8 °F - 63.0 °F 90% 30.01 in 10.0 mi ENE 3.5 mph - N/A   Clear
7:55 AM 66.4 °F - 63.3 °F 90% 30.00 in 10.0 mi East 4.6 mph - N/A   Clear
8:15 AM 69.3 °F - 63.9 °F 83% 30.01 in 10.0 mi East 3.5 mph - N/A   Clear
8:35 AM 72.0 °F - 64.2 °F 77% 30.01 in 10.0 mi ENE 8.1 mph - N/A   Clear
8:55 AM 72.5 °F - 63.9 °F 74% 30.02 in 10.0 mi East 5.8 mph - N/A   Mostly Cloudy
9:15 AM 73.4 °F - 63.7 °F 71% 30.01 in 10.0 mi ESE 6.9 mph - N/A   Mostly Cloudy
9:35 AM 73.8 °F - 63.0 °F 69% 30.01 in 10.0 mi ESE 5.8 mph - N/A   Mostly Cloudy
9:55 AM 73.4 °F - 63.0 °F 70% 30.03 in 10.0 mi SE 4.6 mph - N/A   Overcast
10:15 AM 73.9 °F - 60.4 °F 63% 30.03 in 10.0 mi SSW 4.6 mph - N/A   Mostly Cloudy
10:35 AM 74.7 °F - 58.6 °F 57% 30.03 in 10.0 mi South 5.8 mph - N/A   Scattered Clouds
10:55 AM 74.3 °F - 60.1 °F 61% 30.04 in 10.0 mi South 3.5 mph - N/A   Scattered Clouds
11:15 AM 74.3 °F - 59.9 °F 61% 30.03 in 10.0 mi SW 6.9 mph - N/A   Mostly Cloudy
11:35 AM 74.3 °F - 59.9 °F 61% 30.02 in 10.0 mi SW 3.5 mph - N/A   Mostly Cloudy
11:55 AM 75.2 °F - 59.9 °F 59% 30.02 in 10.0 mi SSW 4.6 mph - N/A   Scattered Clouds
12:15 PM 76.1 °F - 60.1 °F 57% 30.02 in 10.0 mi SSE 5.8 mph - N/A   Scattered Clouds
12:35 PM 76.1 °F - 59.2 °F 56% 30.01 in 10.0 mi East 3.5 mph - N/A   Scattered Clouds
12:55 PM 76.5 °F - 59.5 °F 56% 30.00 in 10.0 mi ESE 6.9 mph - N/A   Scattered Clouds
1:15 PM 77.5 °F - 59.7 °F 54% 29.98 in 10.0 mi ESE 6.9 mph - N/A   Scattered Clouds
1:35 PM 78.3 °F - 59.7 °F 53% 29.96 in 10.0 mi SE 9.2 mph - N/A   Clear
1:55 PM 80.8 °F 81.3 °F 59.4 °F 48% 29.96 in 10.0 mi ESE 8.1 mph - N/A   Clear
2:15 PM 82.0 °F 82.2 °F 59.4 °F 46% 29.96 in 10.0 mi East 5.8 mph - N/A   Scattered Clouds
2:35 PM 80.1 °F 80.7 °F 58.8 °F 48% 29.96 in 10.0 mi SE 3.5 mph - N/A   Mostly Cloudy
2:55 PM 82.0 °F 82.1 °F 58.6 °F 45% 29.96 in 10.0 mi SE 6.9 mph - N/A   Scattered Clouds
3:15 PM 82.8 °F 82.7 °F 59.0 °F 44% 29.95 in 10.0 mi ESE 9.2 mph - N/A   Clear
3:35 PM 83.1 °F 83.0 °F 59.0 °F 44% 29.94 in 10.0 mi SE 6.9 mph - N/A   Clear
3:55 PM 83.8 °F 83.6 °F 59.0 °F 43% 29.94 in 10.0 mi South 6.9 mph - N/A   Clear
4:15 PM 84.0 °F 83.8 °F 59.2 °F 43% 29.93 in 10.0 mi SE 11.5 mph - N/A   Clear
4:35 PM 83.3 °F 83.2 °F 59.0 °F 44% 29.93 in 10.0 mi ESE 10.4 mph 17.3 mph N/A   Clear
4:55 PM 83.3 °F 83.1 °F 58.6 °F 43% 29.92 in 10.0 mi ESE 11.5 mph 19.6 mph N/A   Clear
5:15 PM 83.8 °F 83.4 °F 58.5 °F 42% 29.91 in 10.0 mi ESE 10.4 mph 17.3 mph N/A   Clear
5:35 PM 83.3 °F 82.9 °F 58.3 °F 42% 29.90 in 10.0 mi East 10.4 mph - N/A   Clear
5:55 PM 84.2 °F 83.5 °F 57.6 °F 40% 29.90 in 10.0 mi SE 9.2 mph 18.4 mph N/A   Clear
6:15 PM 83.7 °F 83.3 °F 58.3 °F 42% 29.89 in 10.0 mi SE 12.7 mph 18.4 mph N/A   Clear
6:35 PM 83.1 °F 82.6 °F 57.2 °F 41% 29.89 in 10.0 mi SE 12.7 mph 19.6 mph N/A   Clear
6:55 PM 80.6 °F 80.6 °F 56.3 °F 43% 29.89 in 10.0 mi SE 11.5 mph 17.3 mph N/A   Scattered Clouds
7:15 PM 79.7 °F - 57.4 °F 46% 29.89 in 10.0 mi SE 9.2 mph - N/A   Scattered Clouds
7:35 PM 79.0 °F - 58.1 °F 49% 29.90 in 10.0 mi SE 9.2 mph - N/A   Clear
7:55 PM 78.6 °F - 58.1 °F 49% 29.91 in 10.0 mi SE 5.8 mph - N/A   Clear
8:15 PM 77.9 °F - 58.3 °F 51% 29.92 in 10.0 mi SSE 8.1 mph - N/A   Clear
8:35 PM 77.0 °F - 58.5 °F 53% 29.93 in 10.0 mi SE 8.1 mph - N/A   Clear
8:55 PM 76.3 °F - 58.6 °F 54% 29.93 in 10.0 mi SSE 9.2 mph 16.1 mph N/A   Clear
9:15 PM 75.6 °F - 59.0 °F 56% 29.94 in 10.0 mi SSE 8.1 mph - N/A   Scattered Clouds
9:35 PM 75.2 °F - 58.5 °F 56% 29.95 in 10.0 mi SSE 9.2 mph - N/A   Scattered Clouds
9:55 PM 74.8 °F - 58.6 °F 57% 29.96 in 10.0 mi SSE 5.8 mph - N/A   Mostly Cloudy
10:15 PM 74.3 °F - 59.0 °F 59% 29.97 in 10.0 mi South 4.6 mph - N/A Rain Light Rain
10:35 PM 73.2 °F - 59.4 °F 62% 29.96 in 10.0 mi SSE 4.6 mph - N/A Rain Light Rain
11:15 PM 71.1 °F - 60.6 °F 69% 29.94 in 10.0 mi SSE 10.4 mph - N/A Rain Light Rain
11:35 PM 70.9 °F - 60.8 °F 70% 29.89 in 10.0 mi SE 11.5 mph 16.1 mph N/A   Scattered Clouds
11:55 PM 70.9 °F - 61.0 °F 71% 29.89 in 10.0 mi SE 16.1 mph 25.3 mph N/A Rain Light Rain